FENGYUN 1C DEB, 29965

Orbit data source: Space-Track

FENGYUN 1C DEB, 29965 is space debris in SSO originally from a launch on Mon, 10 May 1999 UTC launched from the Taiyaun Space Center, China (TSC). Fengyun 1C debris stems from the Chinese weather satellite Fengyun-1C, which was intentionally destroyed by a Chinese anti-satellite missile in 2007. This event dramatically increased the amount of space debris, with thousands of trackable fragments posing hazards to satellites and human spaceflight. The Fengyun 1C debris cloud has become a focal point in discussions about space sustainability and the need for international regulations to prevent the creation of new debris.

Loading next visibility...
Identifier
29965, 1999-025KP
Orbit
SSO
Country
Flag of CNCN / PRC
Related business
Manufacturer
Unknown
Mission
Spacecraft
Bus & Motor
Unknown
Mass
Unknown
Launch date (UTC)
1999-05-10 (27 years ago)
Launch vehicle
Unknown
Launch site
Taiyaun Space Center, China (TSC)
Object type
Payload
Rocket body
Debris
Shape & HBR
Unknown shape, 0.2 m
Radar Cross Section
Small (<0.1 m²)

Expand to show TLE details & history
Last TLE update: 10 hours ago

TLE from 10 hours ago
0 FENGYUN 1C DEB
1 29965U 99025KP  26104.88856054 -.00000078  00000-0 -24501-4 0  9996
2 29965  98.9716 101.2848 0146147  89.5164 338.4583 13.95850551979947
Epoch: 2026-04-14T21:19Z
TLE epoch observation values (Epoch: 2026-04-14T21:19:31.630Z)
Latitude
65.81217°
Longitude
-82.11958°
Altitude
820.665 km
Speed
7.499 km/s
True Right ascension
05h 23m 16s
True Declination
65° 41' 04"
Sunlit
Object was in daylight at epoch
Visualization orbit readout
Latitude
Unknown
Longitude
Unknown
Altitude
Unknown
Speed
Unknown
Apparent Right ascension
Unknown
Apparent Declination
Unknown
Sunlit
N/A
Visualization observer readout
Local Sidereal Time
14:18:41
Azimuth
Unknown
Elevation
Unknown
Doppler factor
Unknown
Orbital elements
Apogee altitude
1,011.849 km
Perigee altitude
798.955 km
Semi-major axis
7,283.539 km
Eccentricity
0.01461
Inclination
98.9716°
RAAN
101.2848°
Arg. of periapsis
89.5164°
True anomaly
337.83277°
Mean anomaly
338.4583°
Eccentric anomaly
338.14661°
Mean motion
3.49164 °/min
Orbital period
103.1 mins
BSTAR
-0.000024501
Loading maneuver chart data...
Computing Atmospheric mass density...
Loading historical data...
Loading historical data...
Loading historical data...
Loading historical data...
Loading historical data...
Loading historical data...
Loading historical data...

Documentation

Showing up to 5 results
|